Regional Weather Roundup
Issued by NWS Portland, ME

Current Version | Previous Version | Text Only | Print | Product List | Glossary Off
Versions: 1 2 3 4 5 6 7 8 9 10 11 12 13 14 15 16 17 18 19 20 21 22 23 24 25 26 27 28 29 30 31 32 33 34 35 36 37 38 39 40 41 42 43 44 45 46 47 48 49 50
000 ASUS41 KGYX 260910 RWRGYX WEATHER ROUNDUP FOR MAINE AND NEW HAMPSHIRE NATIONAL WEATHER SERVICE GRAY ME 500 AM EDT SUN MAR 26 2017 MEZ002-005-006-010-012-015-018-020-021-024-026-027-029-261000- MAINE CITY SKY/WX TMP DP RH WIND PRES REMARKS PORTLAND PTCLDY 24 11 57 CALM 30.51R SANFORD CLOUDY 13 11 92 CALM 30.49R BAR HARBOR CLEAR 24 5 44 N5 30.51R WISCASSET CLEAR 22 13 68 CALM 30.53R ROCKLAND CLEAR 29 9 43 VRB7 30.51R FRYEBURG CLOUDY 11 8 88 CALM 30.49R LEWISTONAUBURN CLOUDY 23 8 52 N5 30.51R AUGUSTA CLEAR 25 1 35 N6 30.51R WATERVILLE CLEAR 24 4 42 N10 30.47R WCI 14 BANGOR PTCLDY 22 2 42 N13 30.52R WCI 10 GREENVILLE N/A 13 -3 49 N5 30.42R MILLINOCKET CLOUDY 14 2 58 CALM 30.52R HOULTON PTCLDY 15 -1 49 NW3 30.48R PRESQUE ISLE PTCLDY 12 -2 53 W7 30.49R FRENCHVILLE PTCLDY 10 -6 48 N12 30.44R WCI -5 CARIBOU PTCLDY 10 -4 53 NW7 30.47R $$ NHZ002-005-008-009-011-012-014-261000- NEW HAMPSHIRE CITY SKY/WX TMP DP RH WIND PRES REMARKS PORTSMOUTH PTCLDY 26 17 69 NW3 30.49R ROCHESTER CLOUDY 25 15 66 NW3 30.47R NASHUA CLOUDY 23 22 96 CALM 30.50R MANCHESTER CLOUDY 26 21 81 CALM 30.48R CONCORD CLOUDY 20 16 84 NE3 30.49R LACONIA CLOUDY 16 13 88 CALM 30.48R PLYMOUTH FAIR 15 13 92 CALM 30.49R BERLIN CLOUDY 2 -4 76 CALM 30.47R WHITEFIELD PTCLDY 3 -3 76 CALM 30.47R JAFFREY CLOUDY 20 17 88 CALM 30.44R KEENE PTCLDY 22 21 96 CALM 30.48R LEBANON CLOUDY 19 16 88 S3 30.49R MT WASHINGTON PTCLDY 19 -13 23 NW16 N/A WCI 5 $$ VTZ005-007-008-261000- VERMONT CITY SKY/WX TMP DP RH WIND PRES REMARKS ST JOHNSBURY N/A 11 8 88 MISG 30.49R MONTPELIER FOG 14 13 95 CALM 30.50R VSB 1 BURLINGTON CLOUDY 19 15 84 CALM 30.50R $$ MAZ007-012-024-CTZ003-RIZ002-NYZ038-NYZ072-261000- SOUTHERN NEW ENGLAND AND NY CITY SKY/WX TMP DP RH WIND PRES REMARKS BOSTON CLOUDY 31 26 82 N9 30.48R WORCESTER CLOUDY 28 22 78 NE9 30.42S NANTUCKET CLEAR 29 29 100 N8 30.43R PROVIDENCE CLOUDY 31 26 82 NE8 30.46R HARTFORD PTCLDY 29 27 92 N6 30.46R ALBANY CLOUDY 27 17 66 CALM 30.47R NEW YORK CITY CLOUDY 40 34 79 NE15 30.41S $$ ANZ081-ANZ082-ANZ150-NHZ014-MEZ023>029-261000- COASTAL MARINE OBSERVATIONS STATION/POSITION TIME TEMP WIND PRES WAVE AIR SEA DIR/SP/G HT/PER (UTC) (F) (DEG/KT/KT) (MB) (FT/S) MOUNT DESERT ROC 0900 30 1032.5R MATINICUS ROCK 0800 32 30/ 18/ 19 1031.0R ISLE OF SHOALS 0800 34 30/ 17/ 19 1031.1S JEFFREYS LEDGE 0806 41 N/A 4/ 5 CASHES LEDGE BUO 0850 35 39 1032.3R 4/ 5 GEORGES BANK BUO 0850 40 40 1028.9R 6/ 9 $$ .............KEY.............. WCI - WIND CHILL TC - TEMPERATURE IN CELSIUS VSB - VISIBILITY IN MILES HX - HEAT INDEX FAIR- INDICATES FEW OR NO CLOUDS BELOW 12,000 FT, WITH NO SIGNIFICANT WEATHER AND/OR OBSTRUCTIONS TO VISIBILITY.

USA.gov is the U.S. government's official web portal to all federal, state and local government web resources and services.